[[{"header":{"parameterUnit":"m.s-1","parameterCategory":1,"la1":30.2992,"la2":30.254,"lo1":-89.0895,"lo2":-89.0443,"dy":0.0025,"dx":0.0025,"nx":19,"ny":19,"refTime":"2026-04-03T03:00:00:Z","depth":0,"parameterNumber":2,"parameterNumberName":"U-component_of_WINDS"},"data":[0,0,0,-4.637,-4.6372,-4.6468,-4.6468,-4.66,-4.6601,0,0,0,0,0,0,0,0,0,0,0,-4.6349,-4.635,-4.637,-4.6373,-4.6468,-4.6468,-4.66,-4.6601,0,0,0,0,0,0,0,0,0,0,0,-4.6349,-4.635,-4.6352,-4.6373,-4.6467,-4.6468,-4.6599,-4.6524,0,0,0,0,0,0,0,0,0,0,-4.643,-4.6417,-4.635,-4.6352,-4.6374,-4.6467,-4.6468,-4.652,-4.6528,-4.6562,0,-4.6594,0,-4.66,-4.6611,-4.6611,0,0,0,-4.6367,-4.641,-4.643,-4.6352,-4.6375,-4.6467,-4.6423,-4.6525,-4.6534,-4.6573,-4.6596,-4.66,-4.6602,-4.6612,-4.6612,-4.6826,-4.6827,0,0,-4.6362,-4.637,-4.6423,-4.6436,-4.6423,-4.642,-4.6426,-4.653,-4.6555,-4.6596,-4.6603,-4.6604,-4.6613,-4.6614,-4.6825,-4.6826,0,0,0,-4.6351,-4.6366,-4.6383,-4.6431,-4.6448,-4.6423,-4.643,-4.655,-4.6555,-4.6605,-4.6606,-4.6614,-4.6615,-4.6823,-4.6825,-4.6895,0,0,0,-4.6347,-4.636,-4.6381,-4.6387,-4.6446,-4.65,-4.6448,-4.6548,-4.6559,-4.6605,-4.6614,-4.6617,-4.6822,-4.6824,-4.689,-4.6926,0,0,0,-4.6341,-4.6359,-4.6375,-4.6387,-4.6428,-4.6498,-4.6509,-4.655,-4.6561,-4.6611,-4.6617,-4.6821,-4.6824,-4.6886,-4.6919,-4.6985,0,0,0,-4.6335,-4.6435,-4.6377,-4.6489,-4.6428,-4.6542,-4.6508,-4.6593,-4.6645,-4.6614,-4.6822,-4.6825,-4.6885,-4.6915,-4.698,-4.704,-4.7067,0,0,-4.6466,-4.6451,-4.6517,-4.6467,-4.6594,-4.6527,-4.6664,-4.6703,-4.67,-4.6784,-4.6789,-4.6892,-4.6919,-4.6984,-4.7214,-4.7234,0,0,0,-4.6561,-4.6608,-4.664,-4.6691,-4.6725,-4.6756,-4.6774,-4.6789,-4.6861,-4.6745,-4.6934,-4.6949,-4.6987,-4.7015,-4.7033,-4.7065,-4.6839,-4.6839,-4.6838,-4.6755,-4.6748,-4.6856,-4.686,-4.691,-4.6929,-4.6968,-4.6991,-4.6968,-4.7013,-4.7037,-4.7178,-4.7211,-4.7225,-4.7258,-4.707,-4.707,-4.707,-4.707,-4.6944,-4.7009,-4.6979,-4.7072,-4.7064,-4.7142,-4.7165,-4.7146,-4.7217,-4.7158,-4.7191,-4.7127,-4.7248,-4.7276,-4.7076,-4.7075,-4.7074,-4.7074,-4.7073,-4.7069,-4.7099,-4.7117,-4.7191,-4.7249,-4.725,-4.7321,-4.731,-4.7301,-4.7334,-4.7358,-4.7357,-4.7353,-4.7347,-4.7347,-4.7348,-4.7348,-4.7348,-4.7349,-4.7191,-4.7209,-4.727,-4.7317,-4.7349,-4.7389,-4.7411,-4.7442,-4.7474,-4.7461,-4.7461,-4.7433,-4.7262,-4.7218,-4.7356,-4.7355,-4.7354,-4.7353,-4.7353,-4.7383,-4.7339,-4.7433,-4.7465,-4.7519,-4.7577,-4.7565,-4.7629,-4.7653,-4.7688,-4.7655,-4.7531,-4.7514,-4.75,-4.7464,-4.7657,-4.7657,-4.7657,-4.7657,-4.7487,-4.7479,-4.7574,-4.7626,-4.7677,-4.7675,-4.7782,-4.7801,-4.7813,-4.7827,-4.7798,-4.775,-4.7736,-4.7728,-4.7709,-4.7675,-4.7917,-4.7917,-4.7918,-4.7604,-4.7601,-4.7693,-4.7706,-4.7748,-4.7784,-4.7884,-4.7945,-4.795,-4.7928,-4.7838,-4.7827,-4.7749,-4.7725,-4.7698,-4.7668,-4.7605,0,0]},{"header":{"parameterUnit":"m.s-1","parameterCategory":1,"la1":30.2992,"la2":30.254,"lo1":-89.0895,"lo2":-89.0443,"dy":0.0025,"dx":0.0025,"nx":19,"ny":19,"refTime":"2026-04-03T03:00:00:Z","depth":0,"parameterNumber":3,"parameterNumberName":"V-component_of_WINDS"},"data":[0,0,0,3.3387,3.339,3.3521,3.3521,3.3665,3.3666,0,0,0,0,0,0,0,0,0,0,0,3.3336,3.3337,3.3387,3.339,3.3521,3.3521,3.3665,3.3666,0,0,0,0,0,0,0,0,0,0,0,3.3336,3.3336,3.3337,3.339,3.3521,3.3522,3.3665,3.3574,0,0,0,0,0,0,0,0,0,0,3.345,3.3392,3.3336,3.3337,3.3391,3.352,3.3522,3.357,3.3579,3.3596,0,3.3611,0,3.3641,3.3675,3.3675,0,0,0,3.3398,3.3384,3.343,3.3337,3.3392,3.352,3.3464,3.3575,3.3586,3.3609,3.3613,3.3619,3.3643,3.3675,3.3676,3.3754,3.3754,0,0,3.3391,3.3352,3.3423,3.3437,3.3418,3.346,3.3468,3.3582,3.3583,3.3613,3.3622,3.3646,3.3676,3.3677,3.3754,3.3754,0,0,0,3.3364,3.3347,3.3391,3.343,3.3456,3.3463,3.3473,3.3578,3.3596,3.3624,3.3647,3.3677,3.3679,3.3754,3.3754,3.3718,0,0,0,3.336,3.3332,3.3388,3.3365,3.3454,3.3519,3.3465,3.3588,3.3602,3.3647,3.3677,3.368,3.3754,3.3754,3.3719,3.3707,0,0,0,3.3331,3.3328,3.3344,3.3363,3.3419,3.3518,3.3543,3.3592,3.3615,3.3675,3.368,3.3754,3.3754,3.372,3.3708,3.3717,0,0,0,3.3289,3.3307,3.3342,3.3372,3.3417,3.3495,3.3543,3.3602,3.3649,3.3678,3.3754,3.3754,3.372,3.371,3.3718,3.3718,3.3715,0,0,3.329,3.3306,3.3326,3.3362,3.3424,3.3478,3.3535,3.3612,3.3651,3.3717,3.3719,3.3719,3.3709,3.3717,3.3707,3.3704,0,0,0,3.3314,3.3328,3.3353,3.3398,3.3459,3.3511,3.3585,3.3614,3.3672,3.3678,3.3725,3.372,3.3727,3.3729,3.3726,3.3734,3.3753,3.3753,3.3753,3.326,3.3312,3.335,3.3418,3.346,3.3537,3.3576,3.3628,3.3665,3.3675,3.3695,3.3683,3.3684,3.3682,3.369,3.3699,3.3698,3.3698,3.3698,3.3268,3.3297,3.3349,3.3405,3.3459,3.3504,3.3579,3.3604,3.3654,3.3671,3.368,3.3695,3.3677,3.3687,3.3696,3.3696,3.3697,3.3697,3.3697,3.324,3.3263,3.33,3.3371,3.3419,3.3487,3.3533,3.3579,3.3623,3.3631,3.3658,3.3659,3.3666,3.3641,3.3641,3.3641,3.3641,3.3641,3.3641,3.3196,3.3239,3.3274,3.3342,3.3378,3.3431,3.3509,3.3544,3.3595,3.3625,3.3626,3.3662,3.3666,3.3666,3.364,3.364,3.364,3.364,3.3641,3.3185,3.3196,3.325,3.3286,3.3371,3.3416,3.3476,3.3544,3.358,3.3601,3.3637,3.3632,3.365,3.3652,3.3653,3.3625,3.3625,3.3625,3.3625,3.3162,3.3177,3.3243,3.3298,3.3357,3.3417,3.3474,3.3535,3.3599,3.3624,3.3635,3.3639,3.3639,3.3658,3.366,3.3661,3.3636,3.3636,3.3636,3.3159,3.3182,3.3223,3.3289,3.3359,3.3418,3.3474,3.3533,3.3607,3.3638,3.3645,3.3644,3.3652,3.3652,3.3683,3.3685,3.3689,0,0]}]]